• In Belarus
  • List of Countries
  • For 7 days
  • Water Temperature
  • Satellite Maps
  • Weather Map
  • Weather Widgets
  • user-avatar
    Login

    Hourly Weather Namibe

    Today, 23 July, Sunday

    Time Temperature Precipitation Wind Pressure Humidity
    00:00 +19°C° 0 mm 3 mps 762 mmHg 83%
    01:00 +19°C° 0 mm 3 mps 761 mmHg 84%
    02:00 +19°C° 0 mm 3 mps 761 mmHg 85%
    03:00 +19°C° 0 mm 3 mps 761 mmHg 86%
    04:00 +18°C° 0 mm 3 mps 761 mmHg 88%
    05:00 +18°C° 0 mm 3 mps 761 mmHg 88%
    06:00 +18°C° 0 mm 3 mps 761 mmHg 89%
    07:00 +18°C° 0 mm 3 mps 761 mmHg 90%
    08:00 +21°C° 0 mm 3 mps 761 mmHg 78%
    09:00 +24°C° 0 mm 3 mps 761 mmHg 66%
    10:00 +26°C° 0 mm 3 mps 762 mmHg 54%
    11:00 +28°C° 0 mm 4 mps 761 mmHg 48%
    12:00 +30°C° 0 mm 4 mps 760 mmHg 41%
    13:00 +33°C° 0 mm 5 mps 760 mmHg 35%
    14:00 +32°C° 0 mm 5 mps 760 mmHg 39%
    15:00 +29°C° 0 mm 5 mps 759 mmHg 44%
    16:00 +28°C° 0 mm 6 mps 759 mmHg 48%
    17:00 +26°C° 0 mm 5 mps 760 mmHg 54%
    18:00 +25°C° 0 mm 4 mps 760 mmHg 61%
    19:00 +22°C° 0 mm 3 mps 761 mmHg 67%
    20:00 +21°C° 0 mm 3 mps 761 mmHg 68%
    21:00 +21°C° 0 mm 2 mps 761 mmHg 69%
    22:00 +21°C° 0 mm 2 mps 762 mmHg 71%
    23:00 +20°C° 0 mm 2 mps 762 mmHg 72%

    Tomorrow, 24 July, Monday

    Time Temperature Precipitation Wind Pressure Humidity
    00:00 +20°C° 0 mm 2 mps 762 mmHg 72%
    01:00 +20°C° 0 mm 2 mps 762 mmHg 73%
    02:00 +19°C° 0 mm 2 mps 761 mmHg 75%
    03:00 +19°C° 0 mm 2 mps 761 mmHg 78%
    04:00 +19°C° 0 mm 2 mps 761 mmHg 80%
    05:00 +19°C° 0 mm 1 mps 761 mmHg 82%
    06:00 +19°C° 0 mm 1 mps 762 mmHg 84%
    07:00 +19°C° 0 mm 1 mps 762 mmHg 85%
    08:00 +21°C° 0 mm 1 mps 762 mmHg 75%
    09:00 +23°C° 0 mm 1 mps 762 mmHg 64%
    10:00 +26°C° 0 mm 1 mps 763 mmHg 54%
    11:00 +28°C° 0 mm 2 mps 762 mmHg 47%
    12:00 +30°C° 0 mm 3 mps 761 mmHg 40%
    13:00 +33°C° 0 mm 4 mps 760 mmHg 33%
    14:00 +32°C° 0 mm 4 mps 760 mmHg 37%
    15:00 +30°C° 0 mm 4 mps 760 mmHg 41%
    16:00 +29°C° 0 mm 5 mps 759 mmHg 45%
    17:00 +27°C° 0 mm 4 mps 760 mmHg 51%
    18:00 +25°C° 0 mm 4 mps 760 mmHg 58%
    19:00 +22°C° 0 mm 3 mps 761 mmHg 64%
    20:00 +22°C° 0 mm 3 mps 761 mmHg 66%
    21:00 +21°C° 0 mm 3 mps 762 mmHg 68%
    22:00 +21°C° 0 mm 3 mps 762 mmHg 70%
    23:00 +20°C° 0 mm 3 mps 762 mmHg 71%

    Day after tomorrow, 25 July, Tuesday

    Time Temperature Precipitation Wind Pressure Humidity
    00:00 +20°C° 0 mm 3 mps 762 mmHg 72%
    01:00 +19°C° 0 mm 3 mps 762 mmHg 73%
    02:00 +19°C° 0 mm 3 mps 761 mmHg 75%
    03:00 +19°C° 0 mm 3 mps 761 mmHg 77%
    04:00 +18°C° 0 mm 3 mps 760 mmHg 79%
    05:00 +18°C° 0 mm 3 mps 761 mmHg 79%
    06:00 +18°C° 0 mm 3 mps 761 mmHg 78%
    07:00 +18°C° 0 mm 3 mps 761 mmHg 78%
    08:00 +21°C° 0 mm 3 mps 761 mmHg 67%
    09:00 +25°C° 0 mm 2 mps 762 mmHg 56%
    10:00 +27°C° 0 mm 2 mps 762 mmHg 45%
    11:00 +29°C° 0 mm 3 mps 761 mmHg 39%
    12:00 +32°C° 0 mm 4 mps 760 mmHg 33%
    13:00 +34°C° 0 mm 5 mps 760 mmHg 27%
    14:00 +33°C° 0 mm 5 mps 759 mmHg 33%
    15:00 +30°C° 0 mm 6 mps 759 mmHg 38%
    16:00 +29°C° 0 mm 6 mps 758 mmHg 44%
    17:00 +27°C° 0 mm 5 mps 758 mmHg 48%
    18:00 +26°C° 0 mm 5 mps 759 mmHg 53%
    19:00 +23°C° 0 mm 4 mps 759 mmHg 58%
    20:00 +23°C° 0 mm 4 mps 759 mmHg 59%
    21:00 +22°C° 0 mm 3 mps 760 mmHg 60%
    22:00 +22°C° 0 mm 3 mps 760 mmHg 61%
    23:00 +22°C° 0 mm 3 mps 760 mmHg 61%

    26 July, Wednesday

    Time Temperature Precipitation Wind Pressure Humidity
    00:00 +21°C° 0 mm 3 mps 759 mmHg 61%
    01:00 +21°C° 0 mm 3 mps 759 mmHg 62%
    02:00 +21°C° 0 mm 2 mps 759 mmHg 63%
    03:00 +21°C° 0 mm 2 mps 759 mmHg 64%
    04:00 +21°C° 0 mm 2 mps 758 mmHg 65%
    05:00 +20°C° 0 mm 2 mps 759 mmHg 67%
    06:00 +20°C° 0 mm 2 mps 759 mmHg 69%
    07:00 +20°C° 0 mm 2 mps 760 mmHg 71%
    08:00 +22°C° 0 mm 3 mps 760 mmHg 61%
    09:00 +25°C° 0 mm 3 mps 760 mmHg 51%
    10:00 +28°C° 0 mm 4 mps 760 mmHg 40%
    11:00 +29°C° 0 mm 4 mps 760 mmHg 40%
    12:00 +30°C° 0 mm 4 mps 759 mmHg 39%
    13:00 +32°C° 0 mm 5 mps 759 mmHg 38%
    14:00 +30°C° 0 mm 5 mps 758 mmHg 42%
    15:00 +29°C° 0 mm 4 mps 758 mmHg 47%
    16:00 +28°C° 0 mm 4 mps 757 mmHg 51%
    17:00 +27°C° 0 mm 3 mps 758 mmHg 58%
    18:00 +25°C° 0 mm 3 mps 758 mmHg 64%
    19:00 +24°C° 0 mm 2 mps 759 mmHg 70%
    20:00 +23°C° 0 mm 1 mps 759 mmHg 71%
    21:00 +23°C° 0 mm 1 mps 760 mmHg 72%
    22:00 +23°C° 0 mm 1 mps 760 mmHg 73%
    23:00 +23°C° 0 mm 1 mps 760 mmHg 73%

    27 July, Thursday

    Time Temperature Precipitation Wind Pressure Humidity
    00:00 +22°C° 0 mm 1 mps 760 mmHg 73%
    01:00 +21°C° 0 mm 2 mps 760 mmHg 73%
    02:00 +21°C° 0 mm 2 mps 760 mmHg 76%
    03:00 +20°C° 0 mm 2 mps 760 mmHg 80%
    04:00 +20°C° 0 mm 2 mps 760 mmHg 83%
    05:00 +19°C° 0 mm 2 mps 760 mmHg 86%
    06:00 +19°C° 0 mm 2 mps 760 mmHg 90%
    07:00 +19°C° 0 mm 2 mps 761 mmHg 94%
    08:00 +20°C° 0 mm 2 mps 761 mmHg 84%
    09:00 +23°C° 0 mm 2 mps 761 mmHg 74%
    10:00 +25°C° 0 mm 2 mps 761 mmHg 64%
    11:00 +27°C° 0 mm 3 mps 760 mmHg 56%
    12:00 +29°C° 0 mm 3 mps 760 mmHg 48%
    13:00 +32°C° 0 mm 4 mps 759 mmHg 41%
    14:00 +30°C° 0 mm 4 mps 759 mmHg 45%
    15:00 +29°C° 0 mm 4 mps 758 mmHg 50%
    16:00 +28°C° 0 mm 5 mps 758 mmHg 55%
    17:00 +27°C° 0 mm 4 mps 759 mmHg 62%
    18:00 +25°C° 0 mm 3 mps 759 mmHg 69%
    19:00 +23°C° 0 mm 2 mps 760 mmHg 75%
    20:00 +23°C° 0 mm 1 mps 761 mmHg 77%
    21:00 +23°C° 0 mm 1 mps 761 mmHg 78%
    22:00 +20°C° 0 mm 0 mps 762 mmHg 80%
    23:00 +20°C° 0 mm 0 mps 761 mmHg 80%

    28 July, Friday

    Time Temperature Precipitation Wind Pressure Humidity
    00:00 +20°C° 0 mm 0 mps 761 mmHg 80%
    01:00 +20°C° 0 mm 0 mps 761 mmHg 81%
    02:00 +19°C° 0 mm 0 mps 761 mmHg 83%
    03:00 +21°C° 0 mm 1 mps 760 mmHg 85%
    04:00 +20°C° 0 mm 1 mps 760 mmHg 87%
    05:00 +20°C° 0 mm 1 mps 760 mmHg 89%
    06:00 +20°C° 0 mm 1 mps 760 mmHg 91%
    07:00 +20°C° 0 mm 1 mps 761 mmHg 93%
    08:00 +22°C° 0 mm 1 mps 761 mmHg 81%
    09:00 +24°C° 0 mm 1 mps 761 mmHg 70%
    10:00 +26°C° 0 mm 1 mps 761 mmHg 58%
    11:00 +28°C° 0 mm 2 mps 760 mmHg 51%
    12:00 +30°C° 0 mm 4 mps 759 mmHg 43%
    13:00 +33°C° 0 mm 5 mps 759 mmHg 36%
    14:00 +32°C° 0 mm 5 mps 758 mmHg 41%
    15:00 +30°C° 0 mm 5 mps 758 mmHg 46%
    16:00 +28°C° 0 mm 5 mps 758 mmHg 51%
    17:00 +27°C° 0 mm 4 mps 759 mmHg 54%
    18:00 +25°C° 0 mm 4 mps 759 mmHg 57%
    19:00 +24°C° 0 mm 3 mps 760 mmHg 60%
    20:00 +22°C° 0 mm 3 mps 760 mmHg 59%
    21:00 +23°C° 0 mm 2 mps 761 mmHg 59%
    22:00 +23°C° 0 mm 2 mps 761 mmHg 59%
    23:00 +23°C° 0 mm 2 mps 761 mmHg 59%
    Show more